This is the latest recevied weather packets stored in our database for station/object N4ZIQ. If no packets are shown the sender has not sent any weather packets the latest 10 day(s).
| Time | Temp. | Humidity | Pressure | Rain* | Wind** | Luminosity | Snow |
|---|---|---|---|---|---|---|---|
| 1777959057 | 15° C | 92% | 1016 hPa | 0 mm | - | 0 W/m² | - |
| 1777958748 | 15° C | 92% | 1016.1 hPa | 0 mm | - | 0 W/m² | - |
| 1777958448 | 15° C | 92% | 1016.2 hPa | 0 mm | - | 0 W/m² | - |
| 1777958155 | 15° C | 92% | 1016.2 hPa | 0 mm | - | 0 W/m² | - |
| 1777957848 | 15.56° C | 91% | 1016.1 hPa | 0 mm | - | 0 W/m² | - |
| 1777957548 | 15.56° C | 91% | 1016.2 hPa | 0 mm | - | 0 W/m² | - |
| 1777957254 | 15.56° C | 91% | 1016.1 hPa | 0 mm | - | 0 W/m² | - |
| 1777956946 | 15.56° C | 90% | 1016 hPa | 0 mm | - | 0 W/m² | - |
| 1777956648 | 15.56° C | 89% | 1016.2 hPa | 0 mm | - | 0 W/m² | - |
| 1777956355 | 16.67° C | 89% | 1016.1 hPa | 0 mm | - | 0 W/m² | - |
| 1777956047 | 16.67° C | 89% | 1016.3 hPa | 0 mm | - | 0 W/m² | - |
| 1777955748 | 16.67° C | 88% | 1016.2 hPa | 0 mm | - | 0 W/m² | - |
| 1777955453 | 17.22° C | 88% | 1016.3 hPa | 0 mm | - | 0 W/m² | - |
| 1777955146 | 17.22° C | 89% | 1016.2 hPa | 0 mm | - | 0 W/m² | - |
| 1777954847 | 17.22° C | 88% | 1016.3 hPa | 0 mm | - | 0 W/m² | - |
| 1777954556 | 17.22° C | 89% | 1016.2 hPa | 0 mm | - | 0 W/m² | - |
| 1777954247 | 17.22° C | 89% | 1016.3 hPa | 0 mm | - | 0 W/m² | - |
| 1777953947 | 17.22° C | 89% | 1016.3 hPa | 0 mm | - | 0 W/m² | - |
| 1777953664 | 16.67° C | 90% | 1016.4 hPa | 0 mm | - | 0 W/m² | - |
| 1777953348 | 16.67° C | 91% | 1016.4 hPa | 0 mm | - | 0 W/m² | - |
| 1777953047 | 16.67° C | 91% | 1016.4 hPa | 0 mm | - | 0 W/m² | - |
| 1777952767 | 16.11° C | 91% | 1016.5 hPa | 0 mm | - | 0 W/m² | - |
| 1777952448 | 16.11° C | 92% | 1016.6 hPa | 0 mm | - | 0 W/m² | - |
| 1777952148 | 15.56° C | 92% | 1016.6 hPa | 0 mm | - | 0 W/m² | - |
| 1777951855 | 15.56° C | 92% | 1016.6 hPa | 0 mm | - | 0 W/m² | - |
* Rain latest hour (hover to see other rain measurements)
** Current wind speed in m/s (hover to see current wind gust speed)